Location: STAR School
(35.3054°N, 111.2976°W)
Time: 03:30:29
(UTC-07:00)

SR - Pass Details

Date: 25 May 2019
Orbit: 582 x 874 km, 66.7° (Epoch: 15 June)

Event Time Altitude Azimuth Distance (km) Brightness Sun altitude
Rises 20:57:29 0° 316° (NW) 2,991 ? -15.6°
Reaches altitude 10° 21:00:06 10° 302° (WNW) 2,124 ? -16.0°
Maximum altitude 21:03:51 23° 251° (WSW) 1,502 ? -16.6°
Drops below altitude 10° 21:07:50 10° 200° (SSW) 2,264 ? -17.2°
Enters shadow 21:08:55 - 194° (SSW) 2,610 ? -17.4°
